This is the latest recevied weather packets stored in our database for station/object DL9TK-10. If no packets are shown the sender has not sent any weather packets the latest 10 day(s).
| Time | Temp. | Humidity | Pressure | Rain* | Wind** | Luminosity | Snow |
|---|---|---|---|---|---|---|---|
| 1777889529 | 22.78° C | 40% | 1013.5 hPa | - | - | - | - |
| 1777888629 | 22.78° C | 41% | 1013.4 hPa | - | - | - | - |
| 1777887729 | 21.67° C | 42% | 1013.4 hPa | - | - | - | - |
| 1777886829 | 21.11° C | 43% | 1013.5 hPa | - | - | - | - |
| 1777885929 | 20° C | 44% | 1013.6 hPa | - | - | - | - |
| 1777885029 | 19.44° C | 44% | 1013.5 hPa | - | - | - | - |
| 1777884129 | 18.33° C | 46% | 1013.4 hPa | - | - | - | - |
| 1777883229 | 17.22° C | 47% | 1013.4 hPa | - | - | - | - |
| 1777882329 | 17.22° C | 48% | 1013.4 hPa | - | - | - | - |
| 1777881429 | 16.67° C | 50% | 1013.3 hPa | - | - | - | - |
| 1777880529 | 16.67° C | 50% | 1013.1 hPa | - | - | - | - |
| 1777879629 | 16.11° C | 51% | 1012.9 hPa | - | - | - | - |
| 1777878728 | 16.11° C | 50% | 1012.9 hPa | - | - | - | - |
| 1777877828 | 16.67° C | 49% | 1012.7 hPa | - | - | - | - |
| 1777876929 | 16.11° C | 50% | 1012.7 hPa | - | - | - | - |
| 1777876028 | 16.11° C | 50% | 1012.4 hPa | - | - | - | - |
| 1777875128 | 16.11° C | 51% | 1012.2 hPa | - | - | - | - |
| 1777874228 | 15.56° C | 51% | 1012.1 hPa | - | - | - | - |
| 1777873328 | 16.11° C | 51% | 1011.8 hPa | - | - | - | - |
| 1777872428 | 16.11° C | 52% | 1011.8 hPa | - | - | - | - |
| 1777871528 | 16.11° C | 51% | 1011.6 hPa | - | - | - | - |
| 1777870628 | 16.67° C | 51% | 1011.4 hPa | - | - | - | - |
| 1777869728 | 16.67° C | 51% | 1011.3 hPa | - | - | - | - |
| 1777868828 | 16.67° C | 52% | 1010.9 hPa | - | - | - | - |
| 1777867928 | 17.22° C | 53% | 1010.9 hPa | - | - | - | - |
* Rain since midnight (hover to see other rain measurements)
** Current wind speed in m/s (hover to see current wind gust speed)